#timestamp,LO_Frequency,Hit,StdDev 
1588521615.1,286046999.2,N
1588521616.0,286047011.9,Y
1588521635.8,286046997.3,P
1588521655.7,286046999.2,N
1588521675.5,286046998.8,N
1588521695.4,286046997.1,Y
1588521715.2,286046996.5,P
1588521735.0,286046998.5,N
1588521735.9,286046998.5,N
1588521755.8,286046999.1,N
1588521775.6,286046998.8,N
1588521795.5,286046998.7,N
1588521815.3,286046999.1,N
1588521835.1,286046998.3,N
1588521855.9,286047000.1,N
1588521875.7,286047001.1,N
1588521895.5,286046997.1,N
1588521915.4,286046998.0,N
1588521935.2,286046998.3,N
1588521955.1,286047000.8,N
1588521956.0,286047000.8,N
1588521975.8,286047001.0,N
1588521995.6,286047002.4,N
1588522015.5,286047000.9,N
1588522035.3,286047000.6,N
1588522055.2,286046999.9,N
1588522075.9,286047000.9,N
1588522095.7,286047000.4,N
1588522115.6,286047001.0,N
1588522135.4,286047001.4,N
1588522155.2,286047003.7,N
1588522175.1,286047004.0,N
1588522176.0,286047004.0,N
1588522195.8,286047003.8,N
1588522215.7,286047003.6,N
1588522235.5,286047004.4,N
1588522255.3,286047001.3,N
1588522275.2,286047003.9,N
1588522295.0,286047001.6,N
1588522295.9,286047001.6,N
1588522315.8,286046999.8,N
1588522335.6,286047001.8,N
1588522355.4,286047000.6,N
1588522375.3,286047002.8,N
1588522395.1,286046998.6,N
1588522415.8,286046999.3,N
1588522435.7,286046999.1,N
1588522455.5,286046999.0,N
1588522475.4,286046999.7,N
1588522495.2,286047000.4,N
1588522515.0,286046998.5,N
1588522515.9,286046998.5,N
1588522535.8,286046998.6,N
1588522555.6,286046997.4,N
1588522575.5,286046996.9,N
1588522595.3,286046998.3,N
1588522615.1,286046998.6,N
1588522635.9,286046998.3,N
1588522655.7,286046998.9,N
1588522675.6,286046998.6,N
1588522695.4,286046998.7,N
1588522715.2,286046996.7,N
1588522735.1,286046999.6,N
1588522736.0,286046999.6,N
1588522755.8,286046997.6,N
1588522775.6,286046993.4,Y
1588522795.5,286046995.7,P
1588522815.3,286046998.0,N
1588522835.2,286046996.3,N
1588522855.9,286046993.8,Y
1588522875.7,286046996.0,P
1588522895.6,286046995.2,P
1588522915.4,286046993.8,P
1588522935.3,286046995.9,Y
1588522955.1,286046999.9,P
1588522956.0,286046999.9,N
1588522975.8,286046999.3,N
1588522995.7,286046996.7,N
1588523015.5,286046998.9,N
1588523035.4,286046999.2,N
1588523055.2,286046996.5,N
1588523075.0,286046998.8,N
1588523075.9,286046998.8,N
1588523095.8,286046999.4,N
1588523115.6,286046998.2,N
1588523135.4,286047000.4,N
1588523155.3,286047001.9,N
1588523175.1,286046998.6,N
1588523195.9,286046998.2,N
1588523215.7,286046998.8,N
1588523235.5,286046998.4,N
1588523255.4,286046996.8,N
1588523275.2,286046999.6,N
1588523295.0,286046998.6,N
1588523295.9,286046998.6,N
1588523315.8,286046999.0,N
1588523335.6,286046998.6,N
1588523355.5,286046998.2,N
1588523375.3,286047000.5,N
1588523395.1,286046999.8,N
1588523415.9,286046999.1,N
1588523435.7,286046997.0,N
1588523455.6,286046998.4,N
1588523475.4,286046998.9,N
1588523495.2,286047001.2,N
1588523515.1,286047000.6,N
1588523516.0,286047000.6,N
1588523535.8,286046999.4,N
1588523555.6,286046999.5,N
1588523575.5,286046997.4,N
1588523595.3,286046993.4,Y
1588523615.2,286046997.0,P
1588523635.9,286046995.0,P
1588523655.7,286046998.0,N
1588523675.6,286046995.6,N
1588523695.4,286046997.7,N
1588523715.3,286046997.8,N
1588523735.1,286046999.6,N
1588523736.0,286046999.6,N
1588523755.8,286047001.0,N
1588523775.7,286047001.6,N
1588523795.5,286046999.8,N
1588523815.3,286046999.8,N
1588523835.2,286046998.2,N
1588523855.0,286047002.5,N
1588523855.9,286047002.5,N
1588523875.8,286047002.2,N
1588523895.6,286047002.5,N
1588523915.4,286047002.6,N
1588523935.3,286047001.2,N
1588523955.1,286047002.3,N
1588523975.9,286047002.8,N
1588523995.7,286047002.6,N
1588524015.5,286047000.5,N
1588524035.4,286047002.7,N
1588524055.2,286047002.1,N
1588524075.1,286047004.1,N
1588524076.0,286047004.1,N
1588524095.8,286047002.1,N
1588524115.6,286047000.7,N
1588524135.5,286047000.1,N
1588524155.3,286047004.0,N
1588524175.1,286047005.6,N
1588524195.9,286047005.4,N
1588524215.7,286047006.0,N
1588524235.6,286047001.3,N
1588524255.4,286047004.1,N
1588524275.2,286047001.7,N
1588524295.1,286047001.5,N
1588524296.0,286047001.5,N
1588524315.8,286047004.0,N
1588524335.7,286047001.3,N
1588524355.5,286047002.0,N
1588524375.3,286047001.8,N
1588524395.2,286047003.0,N
1588524415.0,286047003.5,N
1588524415.9,286047003.5,N
1588524435.8,286047003.3,N
1588524455.6,286047005.8,Y
1588524475.4,286047001.9,P
1588524495.3,286047000.1,N
1588524515.1,286047001.1,N
1588524535.9,286047000.2,N
1588524555.7,286047000.3,N
1588524575.5,286047001.0,N
1588524595.4,286047002.2,N
1588524615.2,286047000.2,N
1588524635.0,286047002.1,N
1588524635.9,286047002.1,N
1588524655.8,286047002.0,N
1588524675.6,286047002.7,N
1588524695.5,286047000.7,N
1588524715.3,286047000.3,N
1588524735.1,286047001.4,N
1588524755.9,286047002.4,N
1588524775.7,286047001.7,N
1588524795.6,286047004.2,Y
1588524815.4,286047002.5,P
1588524835.2,286047000.0,N
1588524855.1,286046999.7,N
1588524856.0,286046999.7,N
1588524875.8,286047000.5,N
1588524895.7,286047000.3,N
1588524915.5,286047000.8,N
1588524935.3,286046996.6,Y
1588524955.2,286046997.0,P
1588524975.0,286046997.2,N
1588524975.9,286046997.2,N
1588524995.8,286046994.9,Y
1588525015.6,286047000.4,P
1588525035.4,286047000.4,N
1588525055.3,286047002.7,N
1588525075.1,286047004.3,N
1588525095.8,286047002.7,N
1588525115.7,286047004.0,N
1588525165.6,286047003.6,E
1588525175.5,286047004.4,N
1588525195.3,286046999.3,P
